SVA1331 OERK-OEHL

Flight info

Callsign SVA1331
Flight time 1h 1m
Altitude 36000
Route IVONU2E IVONU Z710 GAS G662 HIL DCT
Aircraft A320/M-SDE3FGHIRWY/LB1

Departure

Time 2026-05-04 19:24
Airport King Khalid International Airport (OERK)

Arrival

Time 2026-05-04 20:25
Airport Hail International Airport (OEHL)
Time Latitude Longitude Altitude Speed Heading
2026-05-04 19:05 24.95626 46.70704 2063 ft 0 kts 256°
2026-05-04 19:14 24.95627 46.70710 2065 ft 2 kts 256°
2026-05-04 19:14 24.95632 46.70729 2064 ft 2 kts 256°
2026-05-04 19:14 24.95636 46.70747 2063 ft 2 kts 256°
2026-05-04 19:15 24.95640 46.70765 2064 ft 2 kts 256°
2026-05-04 19:15 24.95644 46.70784 2063 ft 3 kts 256°
2026-05-04 19:15 24.95648 46.70803 2062 ft 3 kts 283°
2026-05-04 19:15 24.95642 46.70822 2062 ft 3 kts 307°
2026-05-04 19:16 24.95636 46.70829 2067 ft 0 kts 324°
2026-05-04 19:16 24.95639 46.70828 2062 ft 0 kts 327°
2026-05-04 19:17 24.95665 46.70815 2067 ft 10 kts 335°
2026-05-04 19:17 24.95734 46.70776 2065 ft 14 kts 332°
2026-05-04 19:17 24.95811 46.70731 2065 ft 9 kts 342°
2026-05-04 19:17 24.95858 46.70758 2068 ft 7 kts 53°
2026-05-04 19:18 24.95882 46.70806 2066 ft 7 kts 61°
2026-05-04 19:18 24.95909 46.70856 2066 ft 9 kts 59°
2026-05-04 19:18 24.95946 46.70924 2062 ft 11 kts 52°
2026-05-04 19:18 24.96013 46.70916 2061 ft 11 kts 330°
2026-05-04 19:19 24.96124 46.70847 2061 ft 22 kts 331°
2026-05-04 19:19 24.96259 46.70763 2061 ft 23 kts 330°
2026-05-04 19:19 24.96405 46.70672 2061 ft 24 kts 330°
2026-05-04 19:19 24.96536 46.70589 2061 ft 22 kts 330°
2026-05-04 19:20 24.96675 46.70502 2061 ft 24 kts 330°
2026-05-04 19:20 24.96823 46.70409 2067 ft 25 kts 330°
2026-05-04 19:20 24.96976 46.70310 2064 ft 26 kts 329°
2026-05-04 19:20 24.97138 46.70208 2064 ft 27 kts 330°
2026-05-04 19:21 24.97281 46.70117 2064 ft 19 kts 331°
2026-05-04 19:21 24.97377 46.70060 2067 ft 8 kts 338°
2026-05-04 19:21 24.97422 46.70076 2063 ft 7 kts 46°
2026-05-04 19:21 24.97446 46.70122 2064 ft 7 kts 61°
2026-05-04 19:22 24.97476 46.70179 2065 ft 10 kts 58°
2026-05-04 19:22 24.97518 46.70261 2060 ft 9 kts 64°
2026-05-04 19:22 24.97501 46.70321 2054 ft 8 kts 141°
2026-05-04 19:22 24.97458 46.70347 2052 ft 6 kts 151°
2026-05-04 19:23 24.97421 46.70371 2055 ft 10 kts 150°
2026-05-04 19:23 24.97160 46.70536 2056 ft 80 kts 150°
2026-05-04 19:23 24.96485 46.70961 2052 ft 140 kts 150°
2026-05-04 19:23 24.95506 46.71577 2183 ft 173 kts 149°
2026-05-04 19:24 24.94459 46.72208 2785 ft 171 kts 149°
2026-05-04 19:24 24.93500 46.72977 3321 ft 171 kts 140°
2026-05-04 19:24 24.92583 46.73821 3755 ft 175 kts 140°
2026-05-04 19:24 24.91602 46.74741 3899 ft 196 kts 140°
2026-05-04 19:25 24.90500 46.75779 4033 ft 220 kts 140°
2026-05-04 19:25 24.89270 46.76929 4258 ft 243 kts 141°
2026-05-04 19:25 24.87913 46.78179 4579 ft 264 kts 144°
2026-05-04 19:25 24.86324 46.79239 5167 ft 271 kts 152°
2026-05-04 19:26 24.84647 46.80222 5855 ft 275 kts 153°
2026-05-04 19:26 24.82957 46.81181 6550 ft 279 kts 154°
2026-05-04 19:26 24.81218 46.82158 7244 ft 282 kts 154°
2026-05-04 19:26 24.79444 46.83115 7949 ft 285 kts 160°
2026-05-04 19:27 24.77528 46.83719 8653 ft 288 kts 168°
2026-05-04 19:27 24.75568 46.84257 9382 ft 292 kts 168°
2026-05-04 19:27 24.73584 46.84804 10074 ft 297 kts 168°
2026-05-04 19:27 24.71516 46.85372 10339 ft 318 kts 168°
2026-05-04 19:28 24.69279 46.85955 10492 ft 340 kts 173°
2026-05-04 19:28 24.66861 46.86044 10629 ft 358 kts 188°
2026-05-04 19:28 24.64434 46.85344 11043 ft 364 kts 205°
2026-05-04 19:28 24.62259 46.83907 11631 ft 366 kts 220°
2026-05-04 19:29 24.60534 46.81853 12269 ft 368 kts 237°
2026-05-04 19:29 24.59268 46.79446 12914 ft 370 kts 242°
2026-05-04 19:29 24.58028 46.76959 13581 ft 372 kts 242°
2026-05-04 19:29 24.56785 46.74454 14183 ft 375 kts 242°
2026-05-04 19:30 24.55530 46.71929 14781 ft 378 kts 242°
2026-05-04 19:30 24.54482 46.69278 15372 ft 380 kts 253°
2026-05-04 19:30 24.54024 46.66413 15968 ft 383 kts 267°
2026-05-04 19:30 24.54203 46.63486 16567 ft 387 kts 280°
2026-05-04 19:31 24.55026 46.60660 17175 ft 392 kts 294°
2026-05-04 19:31 24.56379 46.58042 17800 ft 396 kts 299°
2026-05-04 19:31 24.57808 46.55444 18387 ft 399 kts 299°
2026-05-04 19:31 24.59244 46.52832 18911 ft 401 kts 299°
2026-05-04 19:32 24.60686 46.50206 19448 ft 403 kts 299°
2026-05-04 19:32 24.62137 46.47557 19979 ft 405 kts 299°
2026-05-04 19:32 24.63591 46.44904 20489 ft 407 kts 299°
2026-05-04 19:32 24.65058 46.42232 20990 ft 409 kts 299°
2026-05-04 19:33 24.66511 46.39585 21468 ft 411 kts 299°
2026-05-04 19:33 24.67991 46.36886 21941 ft 413 kts 298°
2026-05-04 19:33 24.69470 46.34182 22397 ft 415 kts 298°
2026-05-04 19:33 24.70958 46.31454 22845 ft 416 kts 298°
2026-05-04 19:34 24.72450 46.28712 23286 ft 418 kts 298°
2026-05-04 19:34 24.73943 46.25969 23657 ft 420 kts 298°
2026-05-04 19:34 24.75449 46.23204 23996 ft 422 kts 298°
2026-05-04 19:34 24.76963 46.20425 24310 ft 424 kts 298°
2026-05-04 19:35 24.78479 46.17642 24624 ft 426 kts 297°
2026-05-04 19:35 24.80007 46.14837 24937 ft 428 kts 297°
2026-05-04 19:35 24.81536 46.12030 25237 ft 429 kts 297°
2026-05-04 19:35 24.83076 46.09200 25537 ft 431 kts 297°
2026-05-04 19:36 24.84623 46.06359 25841 ft 433 kts 297°
2026-05-04 19:36 24.86168 46.03515 26135 ft 434 kts 297°
2026-05-04 19:36 24.87721 46.00650 26423 ft 436 kts 297°
2026-05-04 19:36 24.89279 45.97774 26693 ft 437 kts 296°
2026-05-04 19:37 24.90835 45.94896 26956 ft 439 kts 296°
2026-05-04 19:37 24.92379 45.92037 27210 ft 440 kts 296°
2026-05-04 19:37 24.93967 45.89103 27459 ft 442 kts 296°
2026-05-04 19:37 24.95524 45.86228 27703 ft 443 kts 296°
2026-05-04 19:38 24.97106 45.83307 27928 ft 444 kts 296°
2026-05-04 19:38 24.98685 45.80389 28148 ft 444 kts 296°
2026-05-04 19:38 25.00269 45.77464 28457 ft 443 kts 296°
2026-05-04 19:38 25.01844 45.74547 28768 ft 441 kts 296°
2026-05-04 19:39 25.03406 45.71648 29079 ft 440 kts 295°
2026-05-04 19:39 25.04970 45.68748 29390 ft 439 kts 295°
2026-05-04 19:39 25.06472 45.65839 29698 ft 436 kts 293°
2026-05-04 19:39 25.07858 45.62873 30020 ft 433 kts 291°
2026-05-04 19:40 25.09138 45.59920 30287 ft 431 kts 290°
2026-05-04 19:40 25.10387 45.56933 30553 ft 429 kts 289°
2026-05-04 19:40 25.11626 45.53941 30845 ft 428 kts 289°
2026-05-04 19:40 25.12871 45.50963 31134 ft 426 kts 290°
2026-05-04 19:41 25.14129 45.48012 31416 ft 425 kts 290°
2026-05-04 19:41 25.15406 45.45070 31699 ft 424 kts 290°
2026-05-04 19:41 25.16685 45.42152 31993 ft 423 kts 290°
2026-05-04 19:41 25.17968 45.39236 32291 ft 421 kts 290°
2026-05-04 19:42 25.19241 45.36328 32578 ft 419 kts 290°
2026-05-04 19:42 25.20499 45.33438 32893 ft 418 kts 290°
2026-05-04 19:42 25.21736 45.30586 33195 ft 416 kts 290°
2026-05-04 19:42 25.22999 45.27669 33509 ft 414 kts 289°
2026-05-04 19:43 25.24218 45.24849 33818 ft 413 kts 289°
2026-05-04 19:43 25.25452 45.21990 34090 ft 411 kts 289°
2026-05-04 19:43 25.26682 45.19148 34335 ft 410 kts 289°
2026-05-04 19:43 25.27915 45.16303 34576 ft 410 kts 289°
2026-05-04 19:44 25.29146 45.13460 34810 ft 409 kts 289°
2026-05-04 19:44 25.30371 45.10628 35017 ft 409 kts 289°
2026-05-04 19:44 25.31600 45.07789 35231 ft 409 kts 289°
2026-05-04 19:44 25.32827 45.04950 35445 ft 409 kts 289°
2026-05-04 19:45 25.34048 45.02123 35655 ft 408 kts 289°
2026-05-04 19:45 25.35252 44.99323 35844 ft 408 kts 289°
2026-05-04 19:45 25.36470 44.96490 35904 ft 410 kts 289°
2026-05-04 19:46 25.38925 44.90788 35907 ft 410 kts 289°
2026-05-04 19:46 25.41375 44.85096 35909 ft 410 kts 289°
2026-05-04 19:47 25.43819 44.79405 35911 ft 410 kts 289°
2026-05-04 19:47 25.46254 44.73715 35906 ft 409 kts 288°
2026-05-04 19:48 25.48671 44.68056 35916 ft 409 kts 288°
2026-05-04 19:48 25.51105 44.62371 35903 ft 409 kts 288°
2026-05-04 19:49 25.53967 44.56891 35913 ft 421 kts 302°
2026-05-04 19:49 25.58231 44.52296 35905 ft 430 kts 308°
2026-05-04 19:50 25.62622 44.47791 35898 ft 430 kts 308°
2026-05-04 19:50 25.67002 44.43268 35901 ft 430 kts 308°
2026-05-04 19:51 25.71385 44.38742 35903 ft 431 kts 308°
2026-05-04 19:51 25.75765 44.34213 35903 ft 431 kts 308°
2026-05-04 19:52 25.80149 44.29673 35903 ft 431 kts 308°
2026-05-04 19:52 25.84534 44.25130 35899 ft 432 kts 308°
2026-05-04 19:53 25.88893 44.20613 35899 ft 432 kts 308°
2026-05-04 19:53 25.93285 44.16050 35901 ft 432 kts 307°
2026-05-04 19:54 25.97678 44.11494 35902 ft 432 kts 307°
2026-05-04 19:54 26.02069 44.06931 35906 ft 432 kts 307°
2026-05-04 19:55 26.06459 44.02363 35913 ft 432 kts 307°
2026-05-04 19:55 26.10853 43.97779 35912 ft 433 kts 307°
2026-05-04 19:56 26.15239 43.93202 35914 ft 432 kts 307°
2026-05-04 19:56 26.19622 43.88629 35915 ft 432 kts 307°
2026-05-04 19:57 26.23982 43.84083 35914 ft 431 kts 307°
2026-05-04 19:57 26.28344 43.79500 35915 ft 430 kts 305°
2026-05-04 19:57 26.30270 43.77015 35917 ft 418 kts 296°
2026-05-04 19:58 26.31819 43.74318 35918 ft 412 kts 292°
2026-05-04 19:58 26.34802 43.68864 35913 ft 412 kts 293°
2026-05-04 19:59 26.37801 43.63420 35910 ft 412 kts 293°
2026-05-04 19:59 26.40780 43.57997 35905 ft 412 kts 292°
2026-05-04 20:00 26.43760 43.52541 35904 ft 412 kts 292°
2026-05-04 20:00 26.46740 43.47082 35909 ft 412 kts 292°
2026-05-04 20:01 26.49723 43.41622 35914 ft 412 kts 292°
2026-05-04 20:01 26.52709 43.36150 35915 ft 412 kts 292°
2026-05-04 20:02 26.55690 43.30680 35919 ft 412 kts 292°
2026-05-04 20:02 26.58638 43.25251 35927 ft 412 kts 292°
2026-05-04 20:03 26.61607 43.19778 35928 ft 412 kts 292°
2026-05-04 20:03 26.64583 43.14295 35932 ft 412 kts 292°
2026-05-04 20:04 26.67553 43.08823 35934 ft 412 kts 292°
2026-05-04 20:04 26.70520 43.03352 35936 ft 411 kts 292°
2026-05-04 20:05 26.73484 42.97883 35940 ft 411 kts 292°
2026-05-04 20:05 26.76423 42.92443 35935 ft 410 kts 292°
2026-05-04 20:06 26.79370 42.86979 35938 ft 410 kts 291°
2026-05-04 20:06 26.82314 42.81509 35941 ft 410 kts 291°
2026-05-04 20:07 26.85256 42.76040 35944 ft 410 kts 291°
2026-05-04 20:07 26.88184 42.70602 35945 ft 410 kts 291°
2026-05-04 20:08 26.91117 42.65142 35951 ft 409 kts 291°
2026-05-04 20:08 26.94040 42.59687 35953 ft 408 kts 291°
2026-05-04 20:09 26.96957 42.54241 35955 ft 407 kts 291°
2026-05-04 20:09 26.99870 42.48797 35959 ft 406 kts 291°
2026-05-04 20:10 27.02772 42.43364 35964 ft 406 kts 291°
2026-05-04 20:10 27.05670 42.37930 35968 ft 406 kts 291°
2026-05-04 20:10 27.07100 42.35253 35717 ft 405 kts 292°
2026-05-04 20:11 27.08729 42.32644 34380 ft 416 kts 300°
2026-05-04 20:11 27.10770 42.30262 32725 ft 432 kts 308°
2026-05-04 20:11 27.13022 42.27989 30935 ft 438 kts 309°
2026-05-04 20:11 27.15301 42.25683 28964 ft 443 kts 310°
2026-05-04 20:12 27.17600 42.23355 26921 ft 448 kts 310°
2026-05-04 20:12 27.19918 42.21003 25014 ft 451 kts 311°
2026-05-04 20:12 27.22250 42.18625 23106 ft 453 kts 312°
2026-05-04 20:12 27.24585 42.16235 21184 ft 454 kts 312°
2026-05-04 20:13 27.26885 42.13884 19570 ft 451 kts 312°
2026-05-04 20:13 27.29189 42.11527 18063 ft 446 kts 313°
2026-05-04 20:13 27.31472 42.09190 16522 ft 440 kts 313°
2026-05-04 20:13 27.33719 42.06892 15159 ft 432 kts 313°
2026-05-04 20:14 27.35912 42.04648 13944 ft 423 kts 313°
2026-05-04 20:14 27.38040 42.02475 13180 ft 402 kts 313°
2026-05-04 20:14 27.39388 42.01102 12718 ft 388 kts 312°
2026-05-04 20:14 27.41416 41.99033 12016 ft 373 kts 312°
2026-05-04 20:15 27.43325 41.97070 11336 ft 369 kts 312°
2026-05-04 20:15 27.45166 41.95177 10925 ft 346 kts 312°
2026-05-04 20:15 27.46871 41.93433 10788 ft 316 kts 311°
2026-05-04 20:15 27.48443 41.91825 10545 ft 296 kts 311°
2026-05-04 20:16 27.49929 41.90298 10292 ft 285 kts 310°
2026-05-04 20:16 27.51376 41.88795 10063 ft 282 kts 310°
2026-05-04 20:16 27.52759 41.87361 9901 ft 264 kts 310°
2026-05-04 20:16 27.54065 41.86020 9778 ft 243 kts 310°
2026-05-04 20:17 27.55272 41.84782 9653 ft 229 kts 309°
2026-05-04 20:17 27.56435 41.83582 9522 ft 226 kts 309°
2026-05-04 20:17 27.57587 41.82388 9402 ft 224 kts 309°
2026-05-04 20:17 27.58698 41.81242 9275 ft 211 kts 309°
2026-05-04 20:18 27.59775 41.80132 9151 ft 208 kts 309°
2026-05-04 20:18 27.60833 41.79032 9025 ft 207 kts 309°
2026-05-04 20:18 27.61894 41.77929 8903 ft 207 kts 309°
2026-05-04 20:18 27.62900 41.76862 8804 ft 186 kts 302°
2026-05-04 20:19 27.63540 41.75735 8639 ft 164 kts 285°
2026-05-04 20:19 27.63818 41.74534 8435 ft 155 kts 271°
2026-05-04 20:19 27.63790 41.73336 8214 ft 152 kts 258°
2026-05-04 20:19 27.63485 41.72230 7992 ft 144 kts 246°
2026-05-04 20:20 27.62954 41.71289 7706 ft 142 kts 234°
2026-05-04 20:20 27.62229 41.70530 7426 ft 145 kts 222°
2026-05-04 20:20 27.61321 41.70005 7157 ft 150 kts 205°
2026-05-04 20:20 27.60260 41.69821 6833 ft 156 kts 197°
2026-05-04 20:21 27.59176 41.69707 6510 ft 157 kts 195°
2026-05-04 20:21 27.58091 41.69617 6175 ft 155 kts 194°
2026-05-04 20:21 27.55992 41.69464 5550 ft 149 kts 194°
2026-05-04 20:22 27.54955 41.69390 5208 ft 149 kts 194°
2026-05-04 20:22 27.53929 41.69319 4959 ft 150 kts 193°
2026-05-04 20:22 27.52895 41.69248 4749 ft 148 kts 193°
2026-05-04 20:22 27.51866 41.69177 4549 ft 149 kts 194°
2026-05-04 20:23 27.50827 41.69105 4338 ft 149 kts 193°
2026-05-04 20:23 27.49784 41.69034 4172 ft 150 kts 193°
2026-05-04 20:23 27.48749 41.68963 3965 ft 150 kts 188°
2026-05-04 20:23 27.47683 41.68889 3757 ft 156 kts 190°
2026-05-04 20:24 27.46587 41.68814 3543 ft 159 kts 188°
2026-05-04 20:24 27.45503 41.68749 3344 ft 154 kts 188°
2026-05-04 20:24 27.44471 41.68677 3287 ft 138 kts 186°
2026-05-04 20:24 27.43724 41.68617 3293 ft 67 kts 183°
2026-05-04 20:25 27.43513 41.68603 3297 ft 16 kts 182°
2026-05-04 20:25 27.43394 41.68597 3298 ft 18 kts 182°
2026-05-04 20:25 27.43269 41.68595 3300 ft 18 kts 174°
2026-05-04 20:25 27.43143 41.68629 3300 ft 19 kts 158°
2026-05-04 20:26 27.43022 41.68690 3301 ft 19 kts 154°
2026-05-04 20:26 27.42988 41.68787 3301 ft 15 kts 43°
2026-05-04 20:26 27.43088 41.68803 3300 ft 15 kts
2026-05-04 20:26 27.43202 41.68812 3299 ft 18 kts
2026-05-04 20:27 27.43351 41.68822 3297 ft 24 kts
2026-05-04 20:27 27.43514 41.68833 3295 ft 23 kts
2026-05-04 20:27 27.43676 41.68844 3293 ft 22 kts
2026-05-04 20:27 27.43788 41.68857 3292 ft 10 kts 20°
2026-05-04 20:28 27.43803 41.68907 3292 ft 6 kts 91°
2026-05-04 20:28 27.43802 41.68929 3292 ft 0 kts 93°